User: anonymous   Login
Location: Unspecified
(0.0000°N, 0.0000°E)
Time: 21:13:44
(UTC+00:00)
Language:

USA 227 - Orbit

View from above orbital plane
View from above orbital plane
View from above satellite
View from above satellite

Ground track
Ground track

The orbit data is extracted from the following two-line orbital elements,

1 37377U 11011A   17125.77165185 0.00000000  00000-0  00000-0 0    00
2 37377   4.6660   0.6159 0007890 187.0349 172.9651  1.00270000    09
Epoch (UTC): 05 May 2017 18:31:10
Eccentricity: 0.0007890
inclination: 4.6660°
perigee height: 35753 km
apogee height: 35820 km
right ascension of ascending node: 0.6159°
argument of perigee: 187.0349°
revolutions per day: 1.00270000
mean anomaly at epoch: 172.9651°
orbit number at epoch: 0

The dashed part of the orbit path shows where the satellite is in the earth's shadow,  

DLR